Date String (YYYY-MM-DD hh:mm:ss) UTC,Instrument flags,Ambient pressure (hPa),Sample flow (lpm),Bypass flow (lpm),Sample temperature (°C),Ambient temperature (°C),ASC tube jacket temperature (°C),LED temperature (°C),Box temperature (°C),Sample RH (%),Span deviation,Mass concentration (μg/m³),Mass concentration (μg/m³),Mass concentration (μg/m³)
DateTimeUTC,F1_M11,P_M11,Q1_M11,Q2_M11,T1_M11,T2_M11,T3_M11,T4_M11,T5_M11,U1_M11,ZSPAN_M11,X0_M11,X2_M11,X1_M11
2021-09-02 21:00:00,,0826.2,5.00,0.00,29.5,28.7,00.0,38.4,31.4,31.4,0000.7,0015.66,0011.44,0010.70
2021-09-02 21:01:00,,0826.2,5.00,0.00,29.5,28.8,00.0,38.4,31.4,31.5,0000.5,0015.54,0011.39,0010.68
2021-09-02 21:02:00,,0826.2,4.99,0.00,29.5,27.9,00.0,38.4,31.2,31.8,0000.7,0015.60,0011.36,0010.66
2021-09-02 21:03:00,,0826.2,5.01,0.00,29.4,26.2,00.0,38.4,30.7,31.9,0000.9,0015.43,0011.32,0010.64
2021-09-02 21:04:00,,0826.2,5.00,0.00,29.3,25.7,00.0,38.4,30.6,32.1,0000.9,0015.06,0011.30,0010.64
2021-09-02 21:05:00,,0826.2,5.01,0.00,29.2,26.0,00.0,38.4,30.6,32.2,0000.9,0014.90,0011.26,0010.65
2021-09-02 21:06:00,,0826.2,5.00,0.00,29.1,26.5,00.0,38.3,30.7,32.4,0001.0,0015.25,0011.24,0010.64
2021-09-02 21:07:00,,0826.2,5.00,0.00,29.1,26.9,00.0,38.3,30.8,32.3,0001.3,0015.69,0011.25,0010.63
2021-09-02 21:08:00,,0826.2,4.99,0.00,29.2,27.4,00.0,38.3,30.9,32.4,0001.3,0015.75,0011.20,0010.61
2021-09-02 21:09:00,,0826.2,5.00,0.00,29.2,27.7,00.0,38.3,31.0,32.1,0001.5,0016.36,0011.17,0010.59
2021-09-02 21:10:00,,0826.2,4.99,0.00,29.3,28.0,00.0,38.3,31.1,31.9,0001.5,0016.42,0011.19,0010.60
2021-09-02 21:11:00,,0826.2,5.01,0.00,29.3,28.2,00.0,38.3,31.2,32.0,0001.6,0016.45,0011.18,0010.60
2021-09-02 21:12:00,,0826.2,5.00,0.00,29.4,28.4,00.0,38.3,31.3,32.0,0001.8,0016.57,0011.17,0010.59
2021-09-02 21:13:00,,0826.2,4.99,0.00,29.4,28.6,00.0,38.4,31.3,32.0,0001.7,0016.56,0011.19,0010.60
2021-09-02 21:14:00,,0826.1,5.00,0.00,29.5,28.7,00.0,38.4,31.4,32.0,0001.7,0016.57,0011.21,0010.62
2021-09-02 21:15:00,,0826.2,5.01,0.00,29.5,28.8,00.0,38.4,31.4,32.0,0001.9,0016.49,0011.19,0010.60
2021-09-02 21:16:00,,0826.2,4.98,0.00,29.5,27.7,00.0,38.4,31.2,31.5,0002.1,0016.88,0011.16,0010.56
2021-09-02 21:17:00,,0826.2,5.00,0.00,29.4,26.1,00.0,38.4,30.7,31.7,0001.9,0016.88,0011.15,0010.55
2021-09-02 21:18:00,,0826.2,5.00,0.00,29.2,25.8,00.0,38.4,30.6,31.9,0001.7,0016.26,0011.10,0010.54
2021-09-02 21:19:00,,0826.2,5.01,0.00,29.2,26.1,00.0,38.4,30.6,31.8,0001.8,0016.08,0011.10,0010.53
2021-09-02 21:20:00,,0826.2,4.99,0.00,29.1,26.6,00.0,38.3,30.7,31.8,0001.8,0015.35,0011.08,0010.52
2021-09-02 21:21:00,,0826.2,5.00,0.00,29.1,27.1,00.0,38.3,30.8,31.9,0001.7,0015.44,0011.05,0010.50
2021-09-02 21:22:00,,0826.2,4.99,0.00,29.2,27.4,00.0,38.3,31.0,32.0,0001.5,0015.45,0011.01,0010.48
2021-09-02 21:23:00,,0826.2,5.00,0.00,29.2,27.8,00.0,38.3,31.0,31.8,0001.4,0015.31,0010.99,0010.47
2021-09-02 21:24:00,,0826.2,5.01,0.00,29.3,28.0,00.0,38.3,31.1,31.5,0001.2,0015.40,0010.99,0010.46
2021-09-02 21:25:00,,0826.2,5.00,0.00,29.3,28.3,00.0,38.3,31.2,31.4,0001.3,0015.47,0011.00,0010.45
2021-09-02 21:26:00,,0826.2,4.99,0.00,29.4,28.4,00.0,38.3,31.3,31.1,0001.1,0015.91,0011.03,0010.46
2021-09-02 21:27:00,,0826.2,4.99,0.00,29.4,28.6,00.0,38.4,31.3,30.9,0001.1,0016.40,0011.06,0010.48
2021-09-02 21:28:00,,0826.2,5.00,0.00,29.5,28.7,00.0,38.4,31.4,30.7,0001.1,0016.30,0011.09,0010.50
2021-09-02 21:29:00,,0826.2,5.01,0.00,29.5,28.7,00.0,38.4,31.4,30.6,0001.1,0016.43,0011.10,0010.51
2021-09-02 21:30:00,,0826.3,4.99,0.00,29.5,27.4,00.0,38.4,31.1,30.9,0001.1,0016.39,0011.11,0010.54
2021-09-02 21:31:00,,0826.2,5.00,0.00,29.4,26.0,00.0,38.4,30.7,31.1,0001.2,0016.35,0011.12,0010.56
2021-09-02 21:32:00,,0826.3,5.00,0.00,29.2,25.8,00.0,38.4,30.6,31.4,0001.3,0016.32,0011.15,0010.58
2021-09-02 21:33:00,,0826.4,5.01,0.00,29.2,26.2,00.0,38.4,30.7,31.3,0001.2,0016.88,0011.19,0010.61
2021-09-02 21:34:00,,0826.2,5.00,0.00,29.1,26.7,00.0,38.3,30.8,31.3,0001.3,0016.98,0011.23,0010.64
2021-09-02 21:35:00,,0826.3,4.99,0.00,29.2,27.1,00.0,38.3,30.9,31.4,0001.5,0016.83,0011.23,0010.67
2021-09-02 21:36:00,,0826.3,5.00,0.00,29.2,27.5,00.0,38.3,31.0,31.5,0001.4,0017.11,0011.24,0010.70
2021-09-02 21:37:00,,0826.3,5.01,0.00,29.2,27.8,00.0,38.3,31.1,31.5,0001.6,0017.14,0011.26,0010.72
2021-09-02 21:38:00,,0826.3,4.99,0.00,29.3,28.1,00.0,38.3,31.2,31.4,0001.7,0016.67,0011.27,0010.75
2021-09-02 21:39:00,,0826.3,5.00,0.00,29.3,28.3,00.0,38.3,31.2,31.5,0001.6,0016.25,0011.26,0010.74
2021-09-02 21:40:00,,0826.4,5.00,0.00,29.4,28.5,00.0,38.3,31.3,31.4,0001.6,0016.20,0011.28,0010.74
2021-09-02 21:41:00,,0826.4,5.01,0.00,29.5,28.6,00.0,38.4,31.4,30.7,0001.3,0016.60,0011.34,0010.77
2021-09-02 21:42:00,,0826.4,5.01,0.00,29.5,28.7,00.0,38.4,31.4,30.4,0001.1,0017.47,0011.47,0010.86
2021-09-02 21:43:00,,0826.4,4.99,0.00,29.5,28.1,00.0,38.4,31.2,30.1,0000.9,0017.59,0011.57,0010.95
2021-09-02 21:44:00,,0826.4,5.01,0.00,29.4,26.3,00.0,38.4,30.8,29.3,0001.0,0017.52,0011.70,0011.06
2021-09-02 21:45:00,,0826.4,5.00,0.00,29.3,25.8,00.0,38.4,30.6,29.4,0001.1,0017.77,0011.85,0011.20
2021-09-02 21:46:00,,0826.5,4.99,0.00,29.2,26.0,00.0,38.4,30.7,29.8,0001.1,0018.48,0011.98,0011.31
2021-09-02 21:47:00,,0826.5,5.00,0.00,29.1,26.5,00.0,38.3,30.7,30.7,0001.1,0018.41,0012.06,0011.38
2021-09-02 21:48:00,,0826.4,5.01,0.00,29.1,27.0,00.0,38.3,30.8,30.3,0001.0,0018.13,0012.12,0011.46
2021-09-02 21:49:00,,0826.4,4.99,0.00,29.2,27.4,00.0,38.3,30.9,31.6,0000.9,0018.06,0012.16,0011.49
2021-09-02 21:50:00,,0826.5,5.01,0.00,29.2,27.7,00.0,38.3,31.0,31.6,0001.1,0018.10,0012.17,0011.51
2021-09-02 21:51:00,,0826.5,4.99,0.00,29.3,28.0,00.0,38.3,31.1,31.4,0001.2,0018.14,0012.19,0011.53
2021-09-02 21:52:00,,0826.5,5.01,0.00,29.3,28.2,00.0,38.3,31.2,31.8,0001.7,0018.35,0012.19,0011.52
2021-09-02 21:53:00,,0826.5,4.99,0.00,29.4,28.4,00.0,38.3,31.3,31.4,0002.0,0017.56,0012.07,0011.46
2021-09-02 21:54:00,,0826.5,5.01,0.00,29.4,28.5,00.0,38.3,31.3,30.9,0002.3,0017.45,0012.01,0011.38
2021-09-02 21:55:00,,0826.5,5.00,0.00,29.5,28.7,00.0,38.4,31.4,31.5,0002.3,0017.26,0011.97,0011.31
2021-09-02 21:56:00,,0826.5,5.00,0.00,29.5,28.4,00.0,38.4,31.3,32.7,0002.3,0018.08,0011.85,0011.21
2021-09-02 21:57:00,,0826.5,5.00,0.00,29.4,26.8,00.0,38.4,30.9,32.9,0002.2,0018.00,0011.78,0011.13
2021-09-02 21:58:00,,0826.5,5.00,0.00,29.3,25.7,00.0,38.4,30.6,32.8,0002.1,0018.76,0011.74,0011.06
2021-09-02 21:59:00,,0826.5,5.01,0.00,29.2,25.8,00.0,38.4,30.6,32.6,0001.9,0019.04,0011.73,0011.00
